Back to catalog

FLOCK 4H 14

AliveScienceSSO
NORAD 66717·PAYLOAD·🇺🇸 United States

Launched Nov 28, 2025 from Vandenberg Space Force Base

Loading…

Next Passes (next 24 hours)

TLE

FreshSource: CelesTrak SupGP

Epoch: Sep 14, 2026, 14:44 UTC

1 66717C 25276BD  26257.61420139  .00005974  00000+0  26172-3 0  2579
2 66717  97.4126 330.2034 0001483  62.7766 169.3001 15.22079417    12

Track FLOCK 4H 14 in real time with AllMySat

Download on the App Store